DateTime,F1_A11,F1_S11,BsB_S11,BsG_S11,BsR_S11,BbsB_S11,BbsG_S11,BbsR_S11,BaB_A11,BaG_A11,BaR_A11,T_S11,U_S11,P_S11,T1_A11
2016-08-12T00:00:00Z,0000380,21000600,,,,,,,,,,25.5,00.5,0665.4,34.7
2016-08-12T00:01:00Z,0000380,21000600,,,,,,,,,,25.5,00.4,0665.4,34.7
2016-08-12T00:02:00Z,0000380,21000600,,,,,,,,,,25.5,00.4,0665.4,34.7
2016-08-12T00:03:00Z,0000380,61000600,,,,,,,,,,25.6,00.4,0665.4,34.7
2016-08-12T00:04:00Z,0000380,41000600,0002.42,0001.40,0001.11,0000.05,-000.08,0000.14,0000.06,0000.22,-000.04,25.7,00.3,0666.3,34.7
2016-08-12T00:05:00Z,0000380,01000600,0001.94,0001.25,0000.95,0000.16,0000.17,0000.27,-000.01,0000.29,0000.31,25.8,00.3,0666.4,34.7
2016-08-12T00:06:00Z,0000380,01000600,0001.76,0002.44,0000.73,0000.25,0000.00,0000.36,0000.03,-000.19,-000.16,25.8,00.3,0666.4,34.7
2016-08-12T00:07:00Z,0000380,01000600,0001.89,0002.16,0000.80,0000.63,0000.39,0000.03,0000.13,0000.15,0000.00,25.7,00.2,0666.4,34.7
2016-08-12T00:08:00Z,0000380,01000600,0001.61,0001.45,0000.47,0000.14,0000.47,0000.63,0000.19,-000.03,0000.04,25.7,00.3,0666.4,34.7
2016-08-12T00:09:00Z,0000380,01000600,0002.24,0000.99,0000.72,0000.74,0000.06,0000.46,-000.02,0000.15,0000.08,25.7,00.3,0666.4,34.7
2016-08-12T00:10:00Z,0000380,01000600,0002.49,0001.26,0001.10,0000.59,0000.24,0000.03,0000.12,0000.11,0000.21,25.7,00.2,0666.4,34.7
2016-08-12T00:11:00Z,0000380,01000600,0002.84,0001.54,0000.41,-000.27,0000.47,0000.38,0000.24,0000.04,-000.17,25.7,00.2,0666.4,34.7
2016-08-12T00:12:00Z,0000380,01000600,0001.51,0001.31,0001.02,0000.41,0000.16,0000.19,0000.22,0000.07,0000.44,25.7,00.3,0666.4,34.7
2016-08-12T00:13:00Z,0000380,01000600,0002.69,0001.62,0001.08,0000.05,0000.08,-000.08,-000.25,0000.17,-000.41,25.7,00.2,0666.4,34.7
2016-08-12T00:14:00Z,0000380,01000600,0002.09,0001.21,0000.61,0000.27,-000.08,0000.36,0000.20,0000.05,0000.25,25.7,00.2,0666.4,34.7
2016-08-12T00:15:00Z,0000380,01000600,0002.33,0001.33,0000.80,-000.09,0000.66,-000.02,0000.30,0000.10,0000.28,25.7,00.3,0666.3,34.7
2016-08-12T00:16:00Z,0000380,01000600,0002.07,0000.97,0000.57,-000.35,0000.08,0000.25,-000.14,0000.03,-000.01,25.7,00.3,0666.3,34.7
2016-08-12T00:17:00Z,0000380,01000600,0002.19,0001.41,0000.82,-000.05,0000.30,0000.29,0000.13,0000.05,0000.06,25.7,00.3,0666.3,34.7
2016-08-12T00:18:00Z,0000380,01000600,0001.98,0001.69,0000.97,0000.05,0000.61,0000.33,0000.11,0000.25,-000.04,25.7,00.3,0666.3,34.7
2016-08-12T00:19:00Z,0000380,01000600,0001.51,0002.06,0000.82,0000.73,0000.38,0000.51,0000.17,0000.05,0000.04,25.7,00.3,0666.4,34.7
2016-08-12T00:20:00Z,0000380,01000600,0002.65,0001.50,0000.50,-000.11,0000.25,-000.13,-000.38,-000.40,-000.06,25.6,00.2,0666.5,34.7
2016-08-12T00:21:00Z,0000380,01000600,0001.59,0001.15,0000.44,0000.73,0000.36,0000.03,0000.25,0000.20,-000.10,25.6,00.1,0666.4,34.7
2016-08-12T00:22:00Z,0000380,01000600,0002.35,0001.62,0000.51,-000.22,0000.35,0000.43,0000.47,0000.35,0000.53,25.6,00.2,0666.3,34.7
2016-08-12T00:23:00Z,0000380,01000600,0002.53,0001.57,0001.03,0000.49,0000.19,0000.21,-000.25,0000.07,0000.01,25.6,00.2,0666.4,34.7
2016-08-12T00:24:00Z,0000380,01000600,0002.91,0002.12,0000.89,0000.25,0000.11,0000.57,-000.05,-000.31,-000.29,25.6,00.2,0666.5,34.7
2016-08-12T00:25:00Z,0000380,01000600,0001.89,0002.51,0001.04,0000.30,0000.09,0000.32,0000.44,0000.10,-000.07,25.6,00.1,0666.5,34.7
2016-08-12T00:26:00Z,0000380,01000600,0002.73,0001.28,0001.15,0000.51,-000.14,0000.40,0000.14,0000.17,0000.37,25.6,00.1,0666.4,34.7
2016-08-12T00:27:00Z,0000380,01000600,0002.01,0000.99,0000.69,0000.47,0000.20,0000.51,-000.10,-000.02,-000.52,25.6,00.1,0666.5,34.7
2016-08-12T00:28:00Z,0000380,01000600,0002.78,0001.21,0000.84,0000.44,0000.47,0000.19,0000.06,0000.06,0000.24,25.6,00.1,0666.5,34.7
2016-08-12T00:29:00Z,0000380,01000600,0001.73,0001.74,0001.43,0000.08,0000.16,0000.57,-000.04,0000.09,0000.04,25.5,00.1,0666.4,34.7
2016-08-12T00:30:00Z,0000380,01000600,0002.28,0001.49,0001.01,0000.96,0000.02,0000.24,0000.12,0000.18,0000.32,25.6,00.1,0666.4,34.7
2016-08-12T00:31:00Z,0000380,01000600,0001.91,0001.41,0001.33,-000.35,0000.19,0000.19,0000.14,-000.19,-000.24,25.6,00.1,0666.4,34.7
2016-08-12T00:32:00Z,0000380,01000600,0002.22,0001.58,0000.49,0000.22,0000.13,-000.09,0000.14,0000.12,-000.06,25.6,00.1,0666.5,34.7
2016-08-12T00:33:00Z,0000380,01000600,0001.59,0001.39,0000.68,0000.17,0000.38,0000.40,-000.10,0000.16,0000.17,25.5,00.1,0666.5,34.7
2016-08-12T00:34:00Z,0000380,01000600,0002.87,0001.13,0000.91,0000.06,-000.06,0000.13,0000.01,-000.05,0000.11,25.5,00.1,0666.4,34.7
2016-08-12T00:35:00Z,0000380,01000600,0001.63,0001.73,0001.12,0000.46,0000.09,-000.11,0000.15,0000.06,0000.12,25.5,00.1,0666.4,34.7
2016-08-12T00:36:00Z,0000380,01000600,0001.46,0000.69,0001.42,0000.49,0000.31,0000.40,0000.13,0000.22,-000.12,25.5,00.1,0666.4,34.7
2016-08-12T00:37:00Z,0000380,01000600,0002.15,0002.41,0001.57,0000.57,0000.16,0000.43,0000.17,0000.13,0000.19,25.5,00.1,0666.4,34.7
2016-08-12T00:38:00Z,0000380,01000600,0002.39,0001.33,0001.10,-000.14,0000.06,0000.41,0000.09,0000.06,0000.11,25.5,00.1,0666.4,34.7
2016-08-12T00:39:00Z,0000380,01000600,0001.45,0002.29,0001.06,0000.43,0000.41,0000.66,0000.35,0000.14,0000.10,25.5,00.1,0666.4,34.7
2016-08-12T00:40:00Z,0000380,01000600,0001.74,0001.74,0000.80,0000.51,0000.58,-000.16,-000.16,-000.13,0000.20,25.5,00.1,0666.4,34.7
2016-08-12T00:41:00Z,0000380,01000600,0002.13,0001.95,0001.12,-000.38,-000.08,0000.38,0000.08,0000.17,-000.05,25.5,00.1,0666.4,34.7
2016-08-12T00:42:00Z,0000380,01000600,0002.38,0001.26,0000.80,0000.35,0000.03,0000.08,0000.14,0000.25,0000.00,25.5,00.1,0666.4,34.7
2016-08-12T00:43:00Z,0000380,01000600,0002.57,0001.72,0000.92,0000.66,0000.22,0000.24,0000.05,-000.01,0000.03,25.5,00.1,0666.4,34.7
2016-08-12T00:44:00Z,0000380,01000600,0001.77,0002.05,0000.89,0000.54,0000.09,0000.55,0000.27,0000.20,0000.23,25.5,00.1,0666.4,34.7
2016-08-12T00:45:00Z,0000380,01000600,0002.73,0001.57,0000.53,-000.38,0000.00,0000.09,0000.09,0000.09,-000.06,25.5,00.2,0666.3,34.6
2016-08-12T00:46:00Z,0000380,01000600,0002.62,0002.14,0000.88,0000.44,0000.79,0000.13,0000.23,0000.12,0000.12,25.5,00.1,0666.3,34.6
2016-08-12T00:47:00Z,0000380,01000600,0001.71,0001.30,0001.08,0000.25,0000.09,0000.03,-000.03,0000.11,-000.07,25.4,00.1,0666.3,34.6
2016-08-12T00:48:00Z,0000380,01000600,0003.14,0001.46,0000.90,0000.81,0000.03,0000.11,0000.09,0000.12,0000.49,25.5,00.1,0666.3,34.6
2016-08-12T00:49:00Z,0000380,01000600,0002.00,0001.43,0000.81,0000.28,0000.33,0000.35,0000.28,0000.25,0000.19,25.5,00.2,0666.3,34.6
2016-08-12T00:50:00Z,0000380,01000600,0001.78,0002.05,0001.00,0000.38,0000.44,0000.43,0000.23,0000.17,-000.07,25.5,00.3,0666.3,34.6
2016-08-12T00:51:00Z,0000380,01000600,0002.42,0002.15,0000.92,0000.70,0000.28,0000.46,0000.01,0000.16,0000.09,25.4,00.2,0666.3,34.6
2016-08-12T00:52:00Z,0000380,01000600,0003.33,0002.09,0000.95,0000.32,-000.03,0000.02,0000.26,0000.12,0000.23,25.4,00.3,0666.3,34.6
2016-08-12T00:53:00Z,0000380,01000600,0003.06,0001.92,0000.83,0001.19,0000.31,0000.17,0000.08,0000.08,0000.22,25.4,00.4,0666.3,34.6
2016-08-12T00:54:00Z,0000380,01000600,0002.78,0002.10,0000.72,0000.57,0000.17,0000.25,0000.07,0000.02,-000.11,25.5,00.3,0666.3,34.6
2016-08-12T00:55:00Z,0000380,01000600,0002.40,0001.48,0000.60,-000.08,0000.02,0000.22,0000.19,0000.17,0000.20,25.4,00.3,0666.4,34.6
2016-08-12T00:56:00Z,0000380,01000600,0002.81,0001.95,0001.40,0000.51,0000.11,0000.28,0000.23,0000.17,0000.06,25.4,00.4,0666.3,34.6
2016-08-12T00:57:00Z,0000380,41000600,,,,,,,,,,,,0666.5,34.6
2016-08-12T00:58:00Z,0000380,61000600,,,,,,,,,,25.3,00.4,0665.3,34.6
2016-08-12T00:59:00Z,0000380,21000600,,,,,,,,,,25.3,00.3,0665.4,34.6
2016-08-12T01:00:00Z,0000380,21000600,,,,,,,,,,25.3,00.3,0665.4,34.6
2016-08-12T01:01:00Z,0000380,21000600,,,,,,,,,,25.3,00.3,0665.4,34.6
2016-08-12T01:02:00Z,0000380,21000600,,,,,,,,,,25.3,00.3,0665.4,34.6
2016-08-12T01:03:00Z,0000380,61000600,,,,,,,,,,25.3,00.3,0665.4,34.6
2016-08-12T01:04:00Z,0000380,41000600,0001.94,0000.96,0000.34,0000.21,0000.13,0000.11,0000.18,0000.07,0000.03,25.3,00.2,0666.4,34.6
2016-08-12T01:05:00Z,0000380,01000600,0002.06,0001.21,0001.32,-000.14,0000.39,0000.02,-000.21,0000.13,0000.16,25.3,00.2,0666.5,34.6
2016-08-12T01:06:00Z,0000380,01000600,0001.55,0001.70,0000.88,0000.41,0000.53,0000.09,0000.06,-000.02,0000.28,25.3,00.2,0666.5,34.6
2016-08-12T01:07:00Z,0000380,01000600,0002.38,0001.51,0000.94,0000.08,0000.47,-000.13,-000.02,0000.16,-000.27,25.3,00.2,0666.5,34.6
2016-08-12T01:08:00Z,0000380,01000600,0002.33,0001.72,0001.08,-000.22,0000.41,-000.06,0000.04,0000.04,0000.30,25.3,00.1,0666.5,34.6
2016-08-12T01:09:00Z,0000380,01000600,0003.16,0001.83,0000.47,0000.46,-000.13,-000.02,0000.37,0000.13,-000.12,25.3,00.1,0666.5,34.6
2016-08-12T01:10:00Z,0000380,01000600,0001.91,0002.40,0001.19,0000.06,0000.06,-000.08,-000.22,-000.01,-000.06,25.3,00.1,0666.5,34.6
2016-08-12T01:11:00Z,0000380,01000600,0002.37,0001.37,0000.85,0000.60,0000.25,0000.17,0000.04,-000.04,-000.01,25.3,00.1,0666.5,34.6
2016-08-12T01:12:00Z,0000380,01000600,0002.35,0000.94,0000.60,-000.16,0000.24,0000.19,0000.09,0000.11,-000.08,25.3,00.1,0666.5,34.6
2016-08-12T01:13:00Z,0000380,01000600,0001.90,0001.56,0000.81,0000.43,0000.22,0000.06,0000.12,0000.05,0000.17,25.3,00.1,0666.5,34.6
2016-08-12T01:14:00Z,0000380,01000600,0001.50,0001.38,0000.88,0000.24,0000.20,0000.19,0000.32,0000.09,0000.19,25.3,00.1,0666.5,34.6
2016-08-12T01:15:00Z,0000380,01000600,0001.80,0001.05,0000.73,0000.93,0000.00,0000.49,0000.09,0000.13,-000.14,25.3,00.1,0666.5,34.6
2016-08-12T01:16:00Z,0000380,01000600,0002.59,0002.05,0000.91,-000.13,-000.17,0000.28,0000.05,-000.01,0000.35,25.3,00.1,0666.5,34.6
2016-08-12T01:17:00Z,0000380,01000600,0002.34,0002.16,0000.72,0000.21,-000.09,0000.09,-000.05,0000.23,-000.22,25.3,00.1,0666.5,34.6
2016-08-12T01:18:00Z,0000380,01000600,0002.25,0002.02,0001.41,-000.08,0000.27,0000.16,0000.10,-000.10,0000.13,25.3,00.1,0666.5,34.6
2016-08-12T01:19:00Z,0000380,01000600,0001.95,0001.88,0001.12,0000.13,0000.31,0000.21,-000.03,-000.03,0000.08,25.3,00.1,0666.5,34.6
2016-08-12T01:20:00Z,0000380,01000600,0002.90,0001.39,0000.85,-000.35,0000.03,-000.02,0000.33,0000.20,-000.15,25.3,00.1,0666.5,34.6
2016-08-12T01:21:00Z,0000380,01000600,0003.66,0001.72,0000.46,0000.66,-000.24,-000.08,-000.03,0000.00,0000.04,25.3,00.1,0666.5,34.6
2016-08-12T01:22:00Z,0000380,01000600,0002.66,0001.60,0000.73,0000.09,0000.06,0000.22,-000.00,0000.10,0000.51,25.3,00.1,0666.5,34.6
2016-08-12T01:23:00Z,0000380,01000600,0003.66,0001.61,0000.67,0000.22,0000.02,0000.27,0000.05,0000.16,-000.41,25.3,00.1,0666.5,34.6
2016-08-12T01:24:00Z,0000380,01000600,0002.57,0001.74,0001.21,0000.02,0000.28,0000.22,0000.02,-000.12,-000.03,25.3,00.0,0666.5,34.6
2016-08-12T01:25:00Z,0000380,01000600,0002.42,0001.30,0000.93,0000.87,0000.33,0000.03,0000.23,0000.22,0000.24,25.3,00.0,0666.5,34.6
2016-08-12T01:26:00Z,0000380,01000600,0002.67,0001.97,0001.14,-000.32,0000.41,0000.38,0000.02,-000.06,0000.12,25.2,00.0,0666.5,34.6
2016-08-12T01:27:00Z,0000380,01000600,0002.09,0001.15,0000.62,0000.08,0000.11,-000.03,-000.09,0000.25,-000.17,25.2,00.0,0666.5,34.6
2016-08-12T01:28:00Z,0000380,01000600,0000.54,0002.07,0000.87,0000.11,-000.14,0000.06,0000.30,-000.13,0000.23,25.2,00.0,0666.5,34.6
2016-08-12T01:29:00Z,0000380,01000600,0003.34,0001.76,0000.69,0000.21,-000.13,0000.27,-000.07,0000.20,-000.05,25.2,00.1,0666.6,34.6
2016-08-12T01:30:00Z,0000380,01000600,0002.36,0001.48,0001.06,0000.25,-000.08,0000.19,0000.17,0000.08,0000.16,25.2,00.0,0666.6,34.6
2016-08-12T01:31:00Z,0000380,01000600,0002.98,0002.08,0001.21,-000.13,0000.20,0000.22,0000.01,-000.02,0000.03,25.2,00.1,0666.6,34.6
2016-08-12T01:32:00Z,0000380,01000600,0001.98,0001.90,0001.52,0000.49,0000.42,0000.17,0000.33,0000.02,-000.25,25.2,00.0,0666.6,34.6
2016-08-12T01:33:00Z,0000380,01000600,0002.21,0002.29,0000.84,0000.06,0000.00,-000.05,-000.11,0000.07,0000.34,25.2,00.0,0666.6,34.6
2016-08-12T01:34:00Z,0000380,01000600,0002.31,0001.71,0001.27,0000.02,0000.24,0000.02,-000.07,-000.08,-000.22,25.2,00.0,0666.6,34.6
2016-08-12T01:35:00Z,0000380,01000600,0003.58,0001.85,0000.84,-000.05,-000.06,0000.13,0000.27,0000.28,0000.26,25.2,00.0,0666.6,34.6
2016-08-12T01:36:00Z,0000380,01000600,0002.93,0001.71,0000.70,0000.87,-000.33,-000.13,-000.11,0000.03,0000.03,25.2,00.0,0666.6,34.6
2016-08-12T01:37:00Z,0000380,01000600,0002.11,0001.94,0000.55,0000.90,0000.28,0000.24,0000.10,-000.10,-000.05,25.2,00.0,0666.6,34.6
2016-08-12T01:38:00Z,0000380,01000600,0002.39,0002.21,0000.36,0000.27,-000.09,0000.30,0000.20,0000.15,0000.01,25.2,00.0,0666.6,34.6
2016-08-12T01:39:00Z,0000380,01000600,0002.88,0001.43,0000.96,0000.69,0000.16,0000.33,0000.22,0000.10,0000.04,25.1,00.0,0666.5,34.6
2016-08-12T01:40:00Z,0000380,01000600,0002.39,0001.42,0000.75,0000.02,0000.06,0000.09,0000.05,0000.24,0000.17,25.1,00.0,0666.5,34.6
2016-08-12T01:41:00Z,0000380,01000600,0001.94,0001.53,0000.28,-000.21,0000.27,0000.19,0000.28,-000.04,0000.24,25.1,00.0,0666.5,34.6
2016-08-12T01:42:00Z,0000380,01000600,0001.75,0001.59,0001.00,0000.54,0000.19,0000.55,0000.09,0000.29,0000.34,25.1,00.0,0666.5,34.6
2016-08-12T01:43:00Z,0000380,01000600,0001.92,0001.48,0000.88,0000.24,0000.20,0000.32,0000.24,0000.28,-000.18,25.1,00.0,0666.5,34.6
2016-08-12T01:44:00Z,0000380,01000600,0002.22,0001.75,0000.88,-000.06,0000.03,0000.24,-000.08,-000.04,0000.15,25.1,00.0,0666.5,34.6
2016-08-12T01:45:00Z,0000380,01000600,0002.47,0000.87,0000.69,0000.36,0000.20,0000.06,0000.30,0000.17,0000.18,25.1,00.0,0666.5,34.6
2016-08-12T01:46:00Z,0000380,01000600,0002.06,0001.00,0000.93,-000.51,0000.33,0000.16,-000.06,-000.01,0000.08,25.1,00.1,0666.5,34.6
2016-08-12T01:47:00Z,0000380,01000600,0001.37,0001.52,0000.41,0001.10,-000.03,0000.24,0000.14,0000.04,-000.13,25.0,00.1,0666.5,34.6
2016-08-12T01:48:00Z,0000380,01000600,0000.58,0001.08,0000.13,0000.08,-000.35,0000.22,0000.04,0000.04,0000.29,25.1,00.1,0666.5,34.6
2016-08-12T01:49:00Z,0000380,01000600,0001.88,0001.40,0000.26,-000.08,0000.13,0000.24,0000.31,0000.25,-000.05,25.0,00.1,0666.5,34.6
2016-08-12T01:50:00Z,0000380,01000600,0001.35,0000.59,0000.48,-000.14,0000.38,0000.27,-000.03,-000.08,-000.01,25.0,00.0,0666.5,34.6
2016-08-12T01:51:00Z,0000380,01000600,0001.24,0000.67,0000.65,0000.30,0000.46,0000.03,-000.06,-000.15,-000.10,25.0,00.0,0666.5,34.6
2016-08-12T01:52:00Z,0000380,01000600,0001.05,0001.06,0000.46,0000.09,0000.14,-000.17,0000.11,0000.12,0000.09,25.0,00.1,0666.6,34.6
2016-08-12T01:53:00Z,0000380,01000600,0001.52,0000.70,0000.50,0000.54,0000.27,0000.21,0000.07,0000.22,0000.09,25.0,00.1,0666.6,34.6
2016-08-12T01:54:00Z,0000380,01000600,0001.81,0001.00,0000.75,-000.05,-000.13,0000.43,0000.10,-000.03,-000.14,25.0,00.1,0666.6,34.6
2016-08-12T01:55:00Z,0000380,01000600,0000.96,0000.78,0000.19,0000.22,0000.20,-000.27,0000.08,0000.09,-000.07,25.0,00.1,0666.6,34.6
2016-08-12T01:56:00Z,0000380,01000600,0001.52,0000.87,0000.50,-000.54,0000.06,-000.03,-000.00,-000.02,0000.45,25.0,00.1,0666.6,34.6
2016-08-12T01:57:00Z,0000380,41000600,,,,,,,,,,,,0666.5,34.6
2016-08-12T01:58:00Z,0000380,61000600,,,,,,,,,,24.8,00.0,0665.6,34.6
2016-08-12T01:59:00Z,0000380,21000600,,,,,,,,,,24.8,00.0,0665.6,34.6
2016-08-12T02:00:00Z,0000380,21000600,,,,,,,,,,24.8,00.0,0665.6,34.6
2016-08-12T02:01:00Z,0000380,21000600,,,,,,,,,,24.8,00.0,0665.6,34.6
2016-08-12T02:02:00Z,0000380,21000600,,,,,,,,,,24.8,00.0,0665.6,34.6
2016-08-12T02:03:00Z,0000380,61000600,,,,,,,,,,24.9,00.0,0665.6,34.6
2016-08-12T02:04:00Z,0000380,41000600,0001.16,0000.30,-000.00,0000.66,0000.27,0000.08,-000.07,0000.07,0000.31,25.0,00.1,0666.5,34.6
2016-08-12T02:05:00Z,0000380,01000600,0001.18,0000.58,-000.05,0000.27,0000.05,0000.25,-000.20,0000.23,-000.05,25.0,00.1,0666.6,34.6
2016-08-12T02:06:00Z,0000380,01000600,0000.39,0000.59,-000.05,0000.02,0000.02,0000.16,0000.13,-000.19,0000.11,25.0,00.1,0666.6,34.6
2016-08-12T02:07:00Z,0000380,01000600,0000.38,-000.28,-000.35,-000.03,-000.03,0000.36,0000.13,0000.18,0000.03,25.0,00.1,0666.6,34.6
2016-08-12T02:08:00Z,0000380,01000600,-000.08,-000.29,0000.03,0000.21,0000.28,0000.43,0000.02,-000.11,-000.16,25.0,00.1,0666.6,34.6
2016-08-12T02:09:00Z,0000380,01000600,-000.13,-000.19,-000.01,0000.17,0000.38,-000.03,0000.01,0000.21,-000.08,25.0,00.1,0666.6,34.6
2016-08-12T02:10:00Z,0000380,01000600,0000.44,0000.32,0000.20,-000.27,0000.47,0000.39,0000.14,-000.12,0000.24,25.0,00.1,0666.6,34.6
2016-08-12T02:11:00Z,0000380,01000600,0000.73,0000.50,-000.23,-000.08,0000.49,0000.49,-000.12,0000.04,0000.15,25.0,00.1,0666.6,34.6
2016-08-12T02:12:00Z,0000380,01000600,0000.44,0000.39,0000.79,0000.69,-000.17,0000.21,0000.28,0000.20,0000.27,25.0,00.1,0666.6,34.6
2016-08-12T02:13:00Z,0000380,01000600,0000.78,-000.20,-000.05,0000.16,0000.25,0000.06,0000.05,-000.07,-000.43,25.0,00.1,0666.6,34.6
2016-08-12T02:14:00Z,0000380,01000600,0001.31,0000.24,0000.58,-000.19,0000.00,0000.33,0000.44,0000.60,0000.60,25.0,00.1,0666.6,34.6
2016-08-12T02:15:00Z,0000380,01000600,0000.69,0000.96,0000.33,0000.25,-000.14,0000.06,0000.00,-000.11,-000.16,25.0,00.1,0666.6,34.6
2016-08-12T02:16:00Z,0000380,01000600,0000.09,0000.79,0000.25,0000.47,0000.17,0000.11,0000.02,0000.08,-000.24,25.0,00.1,0666.6,34.6
2016-08-12T02:17:00Z,0000380,01000600,0000.58,-000.31,0000.14,-000.05,0000.42,0000.08,-000.03,-000.07,0000.59,25.0,00.1,0666.6,34.6
2016-08-12T02:18:00Z,0000380,01000600,0001.26,0000.08,0000.34,-000.30,-000.11,0000.43,0000.17,0000.26,-000.36,25.0,00.1,0666.6,34.6
2016-08-12T02:19:00Z,0000380,01000600,0000.37,-000.11,0000.78,-000.27,0000.36,0000.35,-000.05,-000.18,0000.09,25.0,00.1,0666.6,34.6
2016-08-12T02:20:00Z,0000380,01000600,0000.36,0000.34,0000.18,0000.73,-000.25,0000.63,0000.10,-000.04,-000.05,25.0,00.1,0666.6,34.6
2016-08-12T02:21:00Z,0000380,01010600,0001.09,0000.05,-000.15,-000.28,0000.24,0000.16,0000.15,0000.16,0000.01,24.9,00.1,0666.6,34.6
2016-08-12T02:22:00Z,0000380,01000600,0000.85,0000.42,0000.82,-000.14,0000.31,0000.44,-000.13,-000.11,0000.10,24.9,00.1,0666.6,34.6
2016-08-12T02:23:00Z,0000380,01000600,0000.21,0000.05,-000.06,0000.17,-000.05,0000.14,0000.04,0000.13,0000.01,24.9,00.1,0666.6,34.6
2016-08-12T02:24:00Z,0000380,01000600,0001.09,0000.16,0000.00,0000.05,-000.22,0000.43,0000.14,0000.15,0000.05,24.9,00.1,0666.6,34.6
2016-08-12T02:25:00Z,0000380,01000600,-000.16,-000.29,-000.31,-000.13,0000.13,0000.06,-000.18,-000.11,-000.18,24.9,00.1,0666.6,34.6
2016-08-12T02:26:00Z,0000380,01000600,0000.32,0000.02,0000.15,0000.84,0000.05,0000.09,0000.15,0000.05,-000.12,25.0,00.1,0666.6,34.6
2016-08-12T02:27:00Z,0000380,01000600,0000.24,0000.18,-000.09,0000.62,-000.09,0000.16,0000.04,0000.05,-000.02,25.0,00.1,0666.6,34.6
2016-08-12T02:28:00Z,0000380,01000600,0000.11,-000.04,0000.07,0000.17,-000.17,0000.28,0000.16,0000.06,0000.38,24.9,00.1,0666.5,34.6
2016-08-12T02:29:00Z,0000380,01000600,0000.10,0000.47,-000.02,-000.02,0000.42,0000.30,-000.09,0000.15,-000.24,24.9,00.1,0666.5,34.6
2016-08-12T02:30:00Z,0000380,01000600,0000.14,0000.21,0000.44,-000.17,0000.03,0000.35,0000.19,-000.04,0000.46,24.9,00.1,0666.5,34.6
2016-08-12T02:31:00Z,0000380,01000600,0000.37,-000.41,0000.96,-000.25,0000.16,0000.25,-000.03,0000.02,0000.21,24.9,00.1,0666.6,34.6
2016-08-12T02:32:00Z,0000380,01000600,-000.67,0000.48,0000.45,-000.71,0000.00,0000.05,-000.15,-000.06,-000.45,24.9,00.1,0666.5,34.6
2016-08-12T02:33:00Z,0000380,01000600,0001.96,0000.75,0000.30,0000.17,0000.60,0000.49,0000.24,-000.06,-000.07,24.8,00.1,0666.5,34.6
2016-08-12T02:34:00Z,0000380,01000600,0000.60,0000.51,0000.16,0000.25,0000.16,0000.21,-000.08,0000.19,0000.10,24.9,00.1,0666.6,34.6
2016-08-12T02:35:00Z,0000380,01000600,0001.26,0000.61,0000.41,0000.06,0000.52,0000.11,-000.10,-000.04,-000.16,24.9,00.1,0666.6,34.6
2016-08-12T02:36:00Z,0000380,01000600,0001.81,0001.35,0000.23,0000.52,0000.35,0000.47,0000.17,-000.01,0000.18,24.8,00.1,0666.6,34.6
2016-08-12T02:37:00Z,0000380,01000600,0001.89,0001.51,0000.88,0000.02,0000.64,0000.00,0000.07,0000.06,-000.13,24.8,00.0,0666.6,34.6
2016-08-12T02:38:00Z,0000380,01000600,0002.06,0001.14,0000.59,-000.05,0000.33,0000.52,0000.22,-000.00,0000.15,24.8,00.0,0666.6,34.6
2016-08-12T02:39:00Z,0000380,01000600,0001.52,0001.28,0000.43,0000.36,0000.66,0000.38,-000.05,0000.19,0000.19,24.8,00.0,0666.5,34.6
2016-08-12T02:40:00Z,0000380,01000600,0001.07,0001.02,0000.72,0000.03,0000.52,0000.36,0000.08,-000.01,-000.20,24.9,00.0,0666.6,34.6
2016-08-12T02:41:00Z,0000380,01000600,0002.41,0001.49,0000.78,0000.36,0000.17,-000.02,0000.13,0000.07,0000.15,24.8,00.0,0666.5,34.6
2016-08-12T02:42:00Z,0000380,01000600,0002.55,0001.63,0000.41,0000.11,0000.13,0000.22,0000.10,0000.07,-000.05,24.8,00.0,0666.5,34.6
2016-08-12T02:43:00Z,0000380,01000600,0002.13,0001.51,0000.68,0000.77,0000.14,0000.11,0000.02,0000.02,0000.06,24.8,00.0,0666.5,34.6
2016-08-12T02:44:00Z,0000380,01000600,0002.35,0001.68,0000.87,0000.55,0000.14,0000.22,0000.06,0000.11,0000.35,24.8,00.0,0666.5,34.6
2016-08-12T02:45:00Z,0000380,01000600,0002.30,0001.28,0000.78,0000.65,0000.16,0000.16,0000.07,0000.09,-000.20,24.8,00.0,0666.5,34.6
2016-08-12T02:46:00Z,0000380,01000600,0002.49,0001.14,0000.72,-000.14,0000.33,0000.36,0000.16,0000.01,0000.16,24.8,00.0,0666.5,34.6
2016-08-12T02:47:00Z,0000380,01000600,0002.30,0001.72,0000.89,0000.21,-000.06,0000.21,-000.09,0000.01,-000.22,24.8,00.0,0666.5,34.6
2016-08-12T02:48:00Z,0000380,01000600,0002.36,0001.75,0000.47,-000.05,-000.19,0000.24,0000.43,0000.15,0000.08,24.8,00.0,0666.5,34.6
2016-08-12T02:49:00Z,0000380,01000600,0002.44,0001.72,0001.01,0000.66,0000.44,0000.38,-000.08,0000.05,0000.21,24.8,00.0,0666.5,34.6
2016-08-12T02:50:00Z,0000380,01000600,0002.45,0001.35,0000.71,0000.35,0000.39,0000.44,0000.02,0000.08,-000.11,24.8,00.0,0666.5,34.6
2016-08-12T02:51:00Z,0000380,01000600,0001.44,0001.25,0000.86,0000.47,0000.14,0000.08,-000.07,0000.04,0000.20,24.8,00.0,0666.5,34.6
2016-08-12T02:52:00Z,0000380,01000600,0001.91,0000.83,0000.99,0000.57,0000.09,0000.30,0000.33,0000.04,-000.07,24.8,00.0,0666.5,34.6
2016-08-12T02:53:00Z,0000380,01000600,0001.92,0001.23,0000.94,0000.27,0000.25,0000.14,-000.12,-000.01,0000.16,24.8,00.0,0666.4,34.6
2016-08-12T02:54:00Z,0000380,01000600,0001.91,0000.83,0000.60,0000.22,0000.24,0000.21,0000.19,0000.11,0000.00,24.8,00.0,0666.4,34.6
2016-08-12T02:55:00Z,0000380,01000600,0000.95,0000.85,0000.09,0000.16,0000.64,0000.17,0000.05,-000.00,0000.11,24.8,00.0,0666.4,34.6
2016-08-12T02:56:00Z,0000380,01000600,0001.57,0001.51,0001.53,-000.02,0000.44,0000.65,0000.36,0000.54,0000.25,24.8,00.0,0666.4,34.6
2016-08-12T02:57:00Z,0000380,41000600,,,,,,,,,,,,0666.2,34.6
2016-08-12T02:58:00Z,0000380,61000600,,,,,,,,,,24.7,00.0,0665.3,34.6
2016-08-12T02:59:00Z,0000380,21000600,,,,,,,,,,24.7,00.0,0665.3,34.6
2016-08-12T03:00:00Z,0000380,21000600,,,,,,,,,,24.7,00.0,0665.3,34.6
2016-08-12T03:01:00Z,0000380,21000600,,,,,,,,,,24.7,00.0,0665.3,34.6
2016-08-12T03:02:00Z,0000380,21000600,,,,,,,,,,24.7,00.0,0665.3,34.6
2016-08-12T03:03:00Z,0000380,61000600,,,,,,,,,,24.7,00.0,0665.3,34.6
2016-08-12T03:04:00Z,0000380,41000600,-000.38,0000.41,0000.08,-000.35,0000.14,0000.03,-000.09,-000.00,0000.27,24.8,00.0,0666.2,34.6
2016-08-12T03:05:00Z,0000380,01000600,-000.56,0000.29,-000.10,0000.11,0000.02,-000.28,0000.43,0000.00,-000.01,24.7,00.0,0666.3,34.6
2016-08-12T03:06:00Z,0000380,01000600,-000.47,-000.03,0000.00,-000.63,0000.17,0000.00,0000.02,0000.00,-000.13,24.7,00.0,0666.3,34.6
2016-08-12T03:07:00Z,0000380,01000600,-000.73,0000.30,-000.30,-000.09,-000.08,-000.16,-000.05,-000.01,0000.20,24.7,00.0,0666.2,34.6
2016-08-12T03:08:00Z,0000380,01000600,-001.14,0000.36,0000.48,0000.32,0000.02,-000.24,0000.03,0000.12,-000.18,24.7,00.0,0666.2,34.6
2016-08-12T03:09:00Z,0000380,01000600,0000.14,-000.23,-000.16,-000.33,-000.19,-000.35,0000.15,-000.03,0000.15,24.7,00.0,0666.2,34.6
2016-08-12T03:10:00Z,0000380,01000600,-000.87,-000.62,0000.09,0000.08,-000.03,0000.05,0000.03,0000.17,0000.06,24.7,00.0,0666.2,34.6
2016-08-12T03:11:00Z,0000380,01000600,-000.45,-000.25,-000.10,-000.16,0000.09,-000.09,-000.01,-000.07,-000.11,24.7,00.0,0666.2,34.6
2016-08-12T03:12:00Z,0000380,01000600,-000.05,0000.48,0000.37,-000.03,-000.39,-000.33,-000.01,-000.00,0000.13,24.7,00.0,0666.2,34.6